Regional Weather Roundup
Issued by NWS

Home | Current Version | Previous Version | Text Only | Print | Product List | Glossary Off
Versions: 1 2 3 4 5 6 7 8 9 10 11 12 13 14 15 16 17 18 19 20 21 22 23 24 25 26 27 28 29 30 31 32 33 34 35 36 37 38 39 40 41 42 43 44 45 46 47 48 49 50

827
ASUS43 KMKX 301400
RWRWI

WISCONSIN REGIONAL WEATHER ROUNDUP
NATIONAL WEATHER SERVICE MILWAUKEE/SULLIVAN WI
900 AM CDT SAT APR 30 2016

NOTE: "FAIR" INDICATES FEW OR NO CLOUDS BELOW 12,000 FEET WITH NO
SIGNIFICANT WEATHER AND/OR OBSTRUCTIONS TO VISIBILITY.

WIZ001-002-006>008-014>016-023>028-301500-
NORTHWEST WISCONSIN

CITY           SKY/WX    TMP DP  RH WIND       PRES   REMARKS
SUPERIOR ARPT  MOSUNNY   41  35  76 NE14G26   30.26S
ASHLAND        CLOUDY    45  37  73 NE15      30.25S
HAYWARD        CLOUDY    46  30  53 NE9G18    30.19R
SIREN          MOSUNNY   43  31  63 NE13      30.17S
CUMBERLAND     CLOUDY    41  32  70 NE9       30.14F
RICE LAKE      CLOUDY    44  33  64 NE7       30.15F
CHETEK         CLOUDY    43  32  64 E8        30.14F
LADYSMITH      CLOUDY    45  32  61 E9        30.17S
EAU CLAIRE     NOT AVBL
MENOMONIE      CLOUDY    44  35  69 NE7       30.12R
NEW RICHMOND   CLOUDY    43  33  66 E10       30.12R
OSCEOLA        CLOUDY    44  34  67 E7        30.16R
$$

WIZ003>005-009-010-017-018-301500-
NORTH CENTRAL WISCONSIN

CITY           SKY/WX    TMP DP  RH WIND       PRES   REMARKS
MANITOWISH WTR CLOUDY    44  32  63 NE10G17   30.20S
ARBOR VITAE    CLOUDY    44  31  60 NE5       30.19S
WOODRUFF       CLOUDY    44  31  60 NE5       30.19S
RHINELANDER    MOSUNNY   45  30  55 NE8       30.18F
EAGLE RIVER    CLOUDY    44  29  55 NE7       30.18F
LAND O LAKES   CLOUDY    44  31  59 NE9       30.20F
PHILLIPS       CLOUDY    43  32  63 E8        30.17S
TOMAHAWK       CLOUDY    44  31  59 NE6       30.17S
MEDFORD        CLOUDY    42  32  68 NE12      30.13S
MERRILL        PTSUNNY   45  34  65 NE8       30.15F
$$

WIZ029-030-035-036-043>047-301500-
CENTRAL WISCONSIN

CITY           SKY/WX    TMP DP  RH WIND       PRES   REMARKS
WAUSAU         PTSUNNY   48  32  53 E9G20     30.12S
MOSINEE        SUNNY     45  32  61 E10       30.14S
MARSHFIELD     CLOUDY    45  33  63 E12       30.10S
STEVENS POINT  PTSUNNY   41  31  67 E12       30.13S
WAUPACA        CLOUDY    46  35  67 NE10      30.13S
WAUTOMA        CLOUDY    44  35  70 NE12      30.10F
WISC RAPIDS    CLOUDY    45  31  58 E10       30.12S
CAMP DOUGLAS   NOT AVBL
$$

WIZ011>013-019>022-031-037>040-048>050-301500-
NORTHEAST WISCONSIN

CITY           SKY/WX    TMP DP  RH WIND       PRES   REMARKS
ANTIGO         CLOUDY    44  34  66 CALM      30.15F
SHAWANO        PTSUNNY   47  35  62 NE8       30.16S
OCONTO         PTSUNNY   46  36  67 NE12      30.16F
STURGEON BAY   CLOUDY    46  34  61 E9        30.19F
GREEN BAY      PTSUNNY   46  38  73 NE15      30.15S
MANITOWOC      NOT AVBL
APPLETON       PTSUNNY   45  36  70 E9G16     30.11F
CLINTONVILLE   PTSUNNY   43  34  70 NE8       30.14F
OSHKOSH        CLOUDY    46  37  71 NE9       30.11F
$$

WIZ032>034-041-042-053>061-301500-
SOUTHWEST WISCONSIN

CITY           SKY/WX    TMP DP  RH WIND       PRES   REMARKS
LA CROSSE      CLOUDY    45  32  60 E12       30.06F
SPARTA         CLOUDY    44  34  68 E9        30.08S
VIROQUA        CLOUDY    43  36  76 E15       30.03F
BOSCOBEL       CLOUDY    48  36  63 E13G21    30.02F
PRAIRIE DU CHI CLOUDY    47  37  68 E12G17    29.99F
PLATTEVILLE    CLOUDY    46  41  80 E17       29.99S
$$

WIZ056-057-062-063-064-067-068-301500-
SOUTH CENTRAL WISCONSIN

CITY           SKY/WX    TMP DP  RH WIND       PRES   REMARKS
REEDSBURG      CLOUDY    43  33  67 E5        30.08R
BARABOO/DELLS  CLOUDY    43  32  65 E8        30.07S
LONE ROCK      NOT AVBL
MINERAL POINT  CLOUDY    46  37  71 E16       30.01F
MADISON        CLOUDY    45  35  68 E13       30.07S
MIDDLETON      CLOUDY    46  36  68 E10       30.06F
WATERTOWN      CLOUDY    45  37  76 E10       30.06F
MONROE         CLOUDY    45  39  81 NE9G16    30.02R
JANESVILLE     CLOUDY    46  41  81 E15       30.03F
$$

WIZ051-052-058>065-066-070>072-301500-
SOUTHEAST WISCONSIN

CITY           SKY/WX    TMP DP  RH WIND       PRES   REMARKS
MILWAUKEE      CLOUDY    44  39  82 E16       30.08F
WAUKESHA       PTSUNNY   45  36  70 E5        30.09F
MILWAUKEE/TIMM NOT AVBL
RACINE         CLOUDY    45  39  79 E13       30.09F
BURLINGTON     CLOUDY    45  40  81 E10G17    30.05F
KENOSHA        PTSUNNY   46  40  79 E13       30.07F
FOND DU LAC    CLOUDY    47  37  68 E9        30.10F
SHEBOYGAN      PTSUNNY   46  38  73 E10       30.12F
WEST BEND      CLOUDY    45  37  76 E8        30.10F
JUNEAU         PTSUNNY   46  37  71 E13       30.09S
$$

LSZ147-162-301500-
LAKE SUPERIOR

STATION/POSITION TIME  TEMP    WIND        PRES    WAVE
                       AIR SEA DIR/SP/G            HT/PER
                 (UTC) (F)     (DEG/KT/KT) (MB)    (FT/S)
W MID LAKE BUOY  1250   38 36   40/ 12/ 12 1026.3R   1/ 3
DEVILS ISLAND    1300   39      70/ 14/ 16 1026.1R
SAXON HARBOR     1340   39      40/ 14/ 16 1023.7S
$$

LMZ867-665-643>646-301500-
LAKE MICHIGAN

STATION/POSITION TIME  TEMP    WIND        PRES    WAVE
                       AIR SEA DIR/SP/G            HT/PER
                 (UTC) (F)     (DEG/KT/KT) (MB)    (FT/S)
CHAMBERS ISLAND  1300   40      30/ 10/ 14 1022.7R
N MID LAKE BUOY  1250   39 38   50/ 10/ 12 1022.6R   1/ 3
NORTHPORT PIER   1300   42     340/  6/  8 1022.4R
ALGOMA LAKESHORE 1315           60/ 14/ 16   N/A
KEWAUNEE LAKESHO 1300   42      30/  8/ 10 1020.7R
SHEBOYGAN LAKESH 1300   41      20/  7/  8 1021.4R
PORT WASHINGTON  1300   44      50/  8/ 12 1020.7F
S MID LAKE BUOY  1250   42 40   90/ 10/ 12 1019.6R   1/ 3
KENOSHA   LAKESH 1300   42      90/ 15/ 17 1018.6F
$$

TC  - TEMPERATURE IN CELSIUS
VSB - VISIBILITY IN STATUTE MILES
WCI - WIND CHILL INDEX
HX  - HEAT INDEX





USA.gov is the U.S. government's official web portal to all federal, state and local government web resources and services.